Regional Weather Roundup
Issued by NWS Charleston, WV

Home | Current Version | Previous Version | Graphics & Text | Print | Product List | Glossary On
Versions: 1 2 3 4 5 6 7 8 9 10 11 12 13 14 15 16 17 18 19 20 21 22 23 24 25 26 27
000
ASUS41 KRLX 241510
RWRRLX
West Virginia Regional Weather Roundup
National Weather Service Charleston WV
1100 AM EDT SUN SEP 24 2017

Note: "fair" indicates few or no clouds below 12,000 feet with no
significant weather and/or obstructions to visibility.

WVZ003-241600-
Northern Panhandle of West Virginia

CITY           SKY/WX    TMP DP  RH WIND       PRES   REMARKS
WHEELING       SUNNY     78  62  57 CALM      30.19S
$$

WVZ009-241600-
Northwest West Virginia

CITY           SKY/WX    TMP DP  RH WIND       PRES   REMARKS
PARKERSBURG    SUNNY     75  61  61 CALM      30.20R
$$

WVZ006-241600-
Western West Virginia

CITY           SKY/WX    TMP DP  RH WIND       PRES   REMARKS
HUNTINGTON     SUNNY     73  62  68 E3        30.14F
$$

WVZ015-241600-
West Central West Virginia

CITY           SKY/WX    TMP DP  RH WIND       PRES   REMARKS
CHARLESTON     MOSUNNY   73  60  63 CALM      30.16F
$$

WVZ022-031-241600-
North Central West Virginia

CITY           SKY/WX    TMP DP  RH WIND       PRES   REMARKS
CLARKSBURG     MOSUNNY   73  59  61 CALM      30.18F
MORGANTOWN     MOSUNNY   77  61  57 CALM      30.19F
$$

WVZ025-035-042-045-241600-
Southern West Virginia

CITY           SKY/WX    TMP DP  RH WIND       PRES   REMARKS
BECKLEY        SUNNY     72  52  49 E5        30.21F
LOGAN            N/A     75  59  57 CALM      30.18R
BLUEFIELD      SUNNY     71  53  52 CALM      30.24F
LEWISBURG      SUNNY     71  53  52 CALM      30.21F
$$

WVZ047-241600-
Northern Mountains of West Virginia

CITY           SKY/WX    TMP DP  RH WIND       PRES   REMARKS
ELKINS         MOSUNNY   63  54  72 CALM      30.23F
$$

WVZ052-241600-
Eastern Panhandle of West Virginia

CITY           SKY/WX    TMP DP  RH WIND       PRES   REMARKS
MARTINSBURG    SUNNY     77  59  53 CALM      30.15F
PETERSBURG     SUNNY     73  58  59 CALM      30.19F
$$




USA.gov is the U.S. government's official web portal to all federal, state and local government web resources and services.